"read_dt","SO2 (ppb)","flags","PMT voltage (V)","lamp voltage (V)","lamp intensity (Hz)","internal temp (C)","react chamber temp (C)","sample flow (l/min)","pres (mmHg)","SO2 bkg (ppb)","SO2 coefficient"
2017-03-10 00:00:00,1899E-3,5C000400,-0724,0839,11962,026.5,045.4,0.224,739.2,01.18,0.508
2017-03-10 00:01:00,1819E-3,5C000400,-0724,0840,12089,026.5,045.4,0.224,739.1,01.18,0.508
2017-03-10 00:02:00,1811E-3,5C000400,-0724,0839,12179,026.6,045.4,0.224,739.1,01.18,0.508
2017-03-10 00:03:00,1759E-3,5C000400,-0724,0839,12079,026.6,045.4,0.224,739.1,01.18,0.508
2017-03-10 00:04:00,1813E-3,5C000400,-0724,0839,11934,026.6,045.4,0.224,739.0,01.18,0.508
2017-03-10 00:05:00,1824E-3,5C000400,-0724,0840,11954,026.7,045.4,0.224,739.1,01.18,0.508
2017-03-10 00:06:00,1811E-3,5C000400,-0724,0841,12130,026.7,045.4,0.224,739.1,01.18,0.508
2017-03-10 00:07:00,1720E-3,5C000400,-0724,0840,11844,026.7,045.4,0.224,739.1,01.18,0.508
2017-03-10 00:08:00,1934E-3,5C000400,-0724,0840,12088,026.7,045.4,0.224,739.1,01.18,0.508
2017-03-10 00:09:00,1784E-3,5C000400,-0724,0841,11956,026.7,045.4,0.224,739.1,01.18,0.508
2017-03-10 00:10:00,1747E-3,5C000400,-0724,0840,12155,026.7,045.4,0.224,739.1,01.18,0.508
2017-03-10 00:11:00,1738E-3,5C000400,-0724,0841,11936,026.7,045.4,0.224,739.1,01.18,0.508
2017-03-10 00:12:00,1944E-3,5C000400,-0724,0839,11937,026.7,045.4,0.224,739.1,01.18,0.508
2017-03-10 00:13:00,1891E-3,5C000400,-0724,0839,12017,026.7,045.4,0.224,739.1,01.18,0.508
2017-03-10 00:14:00,1800E-3,5C000400,-0724,0839,12077,026.7,045.4,0.224,739.1,01.18,0.508
2017-03-10 00:15:00,1754E-3,5C000400,-0724,0839,12103,026.7,045.4,0.224,739.1,01.18,0.508
2017-03-10 00:16:00,1957E-3,5C000400,-0724,0839,12018,026.7,045.4,0.224,739.1,01.18,0.508
2017-03-10 00:17:00,1736E-3,5C000400,-0724,0840,12048,026.7,045.4,0.224,739.1,01.18,0.508
2017-03-10 00:18:00,1974E-3,5C000400,-0724,0839,11975,026.7,045.4,0.223,739.1,01.18,0.508
2017-03-10 00:19:00,1753E-3,5C000400,-0724,0839,11984,026.7,045.4,0.224,739.1,01.18,0.508
2017-03-10 00:20:00,1745E-3,5C000400,-0724,0840,12099,026.8,045.4,0.224,739.1,01.18,0.508
2017-03-10 00:21:00,1886E-3,5C000400,-0724,0840,12115,026.7,045.4,0.224,739.1,01.18,0.508
2017-03-10 00:22:00,1813E-3,5C000400,-0724,0839,12097,026.7,045.4,0.224,739.1,01.18,0.508
2017-03-10 00:23:00,1771E-3,5C000400,-0724,0841,11924,026.7,045.4,0.224,739.2,01.18,0.508
2017-03-10 00:24:00,1737E-3,5C000400,-0724,0840,11985,026.6,045.4,0.223,739.2,01.18,0.508
2017-03-10 00:25:00,1757E-3,5C000400,-0724,0840,12001,026.6,045.4,0.224,739.2,01.18,0.508
2017-03-10 00:26:00,1772E-3,5C000400,-0724,0839,12012,026.5,045.4,0.224,739.2,01.18,0.508
2017-03-10 00:27:00,1663E-3,5C000400,-0724,0840,12170,026.5,045.4,0.224,739.2,01.18,0.508
2017-03-10 00:28:00,1816E-3,5C000400,-0724,0840,12014,026.5,045.4,0.223,739.2,01.18,0.508
2017-03-10 00:29:00,1720E-3,5C000400,-0724,0841,12091,026.5,045.4,0.224,739.2,01.18,0.508
2017-03-10 00:30:00,1791E-3,5C000400,-0724,0839,12118,026.6,045.4,0.224,739.2,01.18,0.508
2017-03-10 00:31:00,1797E-3,5C000400,-0724,0840,12084,026.6,045.4,0.224,739.2,01.18,0.508
2017-03-10 00:32:00,1753E-3,5C000400,-0724,0840,12018,026.7,045.4,0.224,739.2,01.18,0.508
2017-03-10 00:33:00,1614E-3,5C000400,-0724,0840,12141,026.7,045.5,0.224,739.2,01.18,0.508
2017-03-10 00:34:00,1745E-3,5C000400,-0724,0840,12101,026.7,045.4,0.224,739.2,01.18,0.508
2017-03-10 00:35:00,1665E-3,5C000400,-0724,0840,12040,026.7,045.4,0.224,739.2,01.18,0.508
2017-03-10 00:36:00,1815E-3,5C000400,-0724,0840,12055,026.7,045.4,0.224,739.2,01.18,0.508
2017-03-10 00:37:00,1809E-3,5C000400,-0724,0840,11954,026.8,045.4,0.224,739.2,01.18,0.508
2017-03-10 00:38:00,1660E-3,5C000400,-0724,0840,12055,026.8,045.4,0.224,739.2,01.18,0.508
2017-03-10 00:39:00,1807E-3,5C000400,-0724,0840,12147,026.8,045.4,0.224,739.2,01.18,0.508
2017-03-10 00:40:00,1697E-3,5C000400,-0724,0840,12039,026.7,045.4,0.223,739.2,01.18,0.508
2017-03-10 00:41:00,1807E-3,5C000400,-0724,0840,12127,026.7,045.4,0.224,739.2,01.18,0.508
2017-03-10 00:42:00,1743E-3,5C000400,-0724,0840,12044,026.7,045.4,0.224,739.2,01.18,0.508
2017-03-10 00:43:00,1863E-3,5C000400,-0724,0839,12033,026.7,045.4,0.223,739.2,01.18,0.508
2017-03-10 00:44:00,1622E-3,5C000400,-0724,0839,11992,026.7,045.4,0.224,739.2,01.18,0.508
2017-03-10 00:45:00,1789E-3,5C000400,-0724,0840,11966,026.7,045.4,0.224,739.2,01.18,0.508
2017-03-10 00:46:00,1725E-3,5C000400,-0724,0840,12152,026.7,045.4,0.223,739.2,01.18,0.508
2017-03-10 00:47:00,1740E-3,5C000400,-0724,0840,12060,026.7,045.4,0.224,739.2,01.18,0.508
2017-03-10 00:48:00,1841E-3,5C000400,-0724,0839,11866,026.7,045.4,0.224,739.2,01.18,0.508
2017-03-10 00:49:00,1750E-3,5C000400,-0724,0840,12069,026.7,045.4,0.223,739.2,01.18,0.508
2017-03-10 00:50:00,1704E-3,5C000400,-0724,0840,12048,026.7,045.4,0.224,739.2,01.18,0.508
2017-03-10 00:51:00,1875E-3,5C000400,-0724,0839,12001,026.7,045.4,0.224,739.1,01.18,0.508
2017-03-10 00:52:00,1749E-3,5C000400,-0724,0839,12119,026.7,045.4,0.223,739.1,01.18,0.508
2017-03-10 00:53:00,1745E-3,5C000400,-0724,0840,12041,026.7,045.4,0.224,739.1,01.18,0.508
2017-03-10 00:54:00,1649E-3,5C000400,-0724,0840,11980,026.7,045.4,0.224,739.1,01.18,0.508
2017-03-10 00:55:00,1783E-3,5C000400,-0724,0841,12041,026.7,045.4,0.223,739.1,01.18,0.508
2017-03-10 00:56:00,1733E-3,5C000400,-0724,0840,11934,026.7,045.4,0.224,739.1,01.18,0.508
2017-03-10 00:57:00,1784E-3,5C000400,-0724,0840,12019,026.7,045.4,0.224,739.1,01.18,0.508
2017-03-10 00:58:00,1878E-3,5C000400,-0724,0840,11917,026.7,045.4,0.224,739.1,01.18,0.508
2017-03-10 00:59:00,1816E-3,5C000400,-0724,0840,11932,026.7,045.4,0.224,739.1,01.18,0.508
2017-03-10 01:00:00,1758E-3,5C000400,-0724,0839,12076,026.7,045.4,0.224,739.1,01.18,0.508
2017-03-10 01:01:00,1878E-3,5C000400,-0724,0839,12135,026.7,045.4,0.224,739.2,01.18,0.508
2017-03-10 01:02:00,1697E-3,5C000400,-0724,0840,12102,026.7,045.4,0.223,739.2,01.18,0.508
2017-03-10 01:03:00,1848E-3,5C000400,-0724,0840,12050,026.7,045.4,0.224,739.2,01.18,0.508
2017-03-10 01:04:00,1729E-3,5C000400,-0724,0839,12047,026.7,045.4,0.224,739.2,01.18,0.508
2017-03-10 01:05:00,1795E-3,5C000400,-0724,0840,12085,026.7,045.4,0.223,739.2,01.18,0.508
2017-03-10 01:06:00,1702E-3,5C000400,-0724,0840,12114,026.7,045.4,0.224,739.1,01.18,0.508
2017-03-10 01:07:00,1852E-3,5C000400,-0724,0840,12039,026.7,045.4,0.224,739.0,01.18,0.508
2017-03-10 01:08:00,1740E-3,5C000400,-0724,0839,12091,026.7,045.4,0.223,739.0,01.18,0.508
2017-03-10 01:09:00,1729E-3,5C000400,-0724,0840,12063,026.7,045.4,0.224,739.0,01.18,0.508
2017-03-10 01:10:00,1683E-3,5C000400,-0724,0841,12090,026.7,045.4,0.224,739.0,01.18,0.508
2017-03-10 01:11:00,1732E-3,5C000400,-0724,0839,12028,026.7,045.4,0.223,739.0,01.18,0.508
2017-03-10 01:12:00,1745E-3,5C000400,-0724,0840,12067,026.7,045.4,0.224,739.0,01.18,0.508
2017-03-10 01:13:00,1911E-3,5C000400,-0724,0840,12236,026.7,045.4,0.224,739.0,01.18,0.508
2017-03-10 01:14:00,1694E-3,5C000400,-0724,0840,12097,026.7,045.4,0.223,739.0,01.18,0.508
2017-03-10 01:15:00,1766E-3,5C000400,-0724,0840,11946,026.7,045.4,0.224,739.0,01.18,0.508
2017-03-10 01:16:00,1664E-3,5C000400,-0724,0839,11902,026.7,045.4,0.224,739.0,01.18,0.508
2017-03-10 01:17:00,1641E-3,5C000400,-0724,0840,12100,026.8,045.4,0.223,739.0,01.18,0.508
2017-03-10 01:18:00,1814E-3,5C000400,-0724,0840,12113,026.8,045.4,0.224,739.1,01.18,0.508
2017-03-10 01:19:00,1708E-3,5C000400,-0724,0840,12048,026.8,045.4,0.224,739.1,01.18,0.508
2017-03-10 01:20:00,1795E-3,5C000400,-0724,0840,12080,026.8,045.4,0.223,739.1,01.18,0.508
2017-03-10 01:21:00,1803E-3,5C000400,-0724,0840,12078,026.8,045.4,0.224,739.2,01.18,0.508
2017-03-10 01:22:00,1744E-3,5C000400,-0724,0840,11922,026.7,045.4,0.224,739.2,01.18,0.508
2017-03-10 01:23:00,1726E-3,5C000400,-0724,0840,12016,026.7,045.4,0.223,739.2,01.18,0.508
2017-03-10 01:24:00,1821E-3,5C000400,-0724,0839,12102,026.7,045.4,0.224,739.2,01.18,0.508
2017-03-10 01:25:00,1815E-3,5C000400,-0724,0840,11971,026.7,045.4,0.224,739.1,01.18,0.508
2017-03-10 01:26:00,1812E-3,5C000400,-0724,0840,12020,026.7,045.4,0.223,739.2,01.18,0.508
2017-03-10 01:27:00,1896E-3,5C000400,-0724,0840,12091,026.8,045.4,0.224,739.3,01.18,0.508
2017-03-10 01:28:00,1879E-3,5C000400,-0724,0840,12117,026.8,045.4,0.224,739.2,01.18,0.508
2017-03-10 01:29:00,1717E-3,5C000400,-0724,0839,11951,026.8,045.4,0.223,739.3,01.18,0.508
2017-03-10 01:30:00,1785E-3,5C000400,-0724,0840,11987,026.7,045.4,0.224,739.3,01.18,0.508
2017-03-10 01:31:00,1822E-3,5C000400,-0724,0839,12004,026.8,045.4,0.224,739.2,01.18,0.508
2017-03-10 01:32:00,1879E-3,5C000400,-0724,0840,11996,026.7,045.4,0.223,739.3,01.18,0.508
2017-03-10 01:33:00,1633E-3,5C000400,-0724,0840,12041,026.8,045.4,0.224,739.2,01.18,0.508
2017-03-10 01:34:00,1665E-3,5C000400,-0724,0839,12026,026.8,045.4,0.224,739.2,01.18,0.508
2017-03-10 01:35:00,1820E-3,5C000400,-0724,0839,11999,026.8,045.4,0.224,739.2,01.18,0.508
2017-03-10 01:36:00,1819E-3,5C000400,-0724,0840,11965,026.8,045.4,0.224,739.2,01.18,0.508
2017-03-10 01:37:00,1751E-3,5C000400,-0724,0840,12064,026.8,045.4,0.224,739.1,01.18,0.508
2017-03-10 01:38:00,1765E-3,5C000400,-0724,0840,12145,026.8,045.4,0.223,739.2,01.18,0.508
2017-03-10 01:39:00,1815E-3,5C000400,-0724,0840,12029,026.7,045.4,0.223,739.2,01.18,0.508
2017-03-10 01:40:00,1755E-3,5C000400,-0724,0841,12102,026.7,045.4,0.224,739.2,01.18,0.508
2017-03-10 01:41:00,1731E-3,5C000400,-0724,0840,12203,026.7,045.4,0.224,739.2,01.18,0.508
2017-03-10 01:42:00,1686E-3,5C000400,-0724,0840,12016,026.7,045.4,0.223,739.3,01.18,0.508
2017-03-10 01:43:00,1737E-3,5C000400,-0724,0841,12068,026.8,045.4,0.224,739.3,01.18,0.508
2017-03-10 01:44:00,1854E-3,5C000400,-0724,0840,12148,026.8,045.4,0.224,739.3,01.18,0.508
2017-03-10 01:45:00,1722E-3,5C000400,-0724,0840,12061,026.8,045.4,0.223,739.2,01.18,0.508
2017-03-10 01:46:00,1736E-3,5C000400,-0724,0840,11993,026.8,045.4,0.224,739.2,01.18,0.508
2017-03-10 01:47:00,1683E-3,5C000400,-0724,0839,11966,026.8,045.4,0.223,739.2,01.18,0.508
2017-03-10 01:48:00,1705E-3,5C000400,-0724,0840,12122,026.8,045.4,0.223,739.3,01.18,0.508
2017-03-10 01:49:00,1716E-3,5C000400,-0724,0840,11958,026.8,045.4,0.224,739.3,01.18,0.508
2017-03-10 01:50:00,1781E-3,5C000400,-0724,0840,11964,026.8,045.4,0.223,739.3,01.18,0.508
2017-03-10 01:51:00,1676E-3,5C000400,-0724,0840,12051,026.8,045.4,0.223,739.3,01.18,0.508
2017-03-10 01:52:00,1918E-3,5C000400,-0724,0840,12016,026.8,045.4,0.224,739.2,01.18,0.508
2017-03-10 01:53:00,1746E-3,5C000400,-0724,0840,12004,026.8,045.4,0.224,739.3,01.18,0.508
2017-03-10 01:54:00,1817E-3,5C000400,-0724,0840,11902,026.8,045.4,0.223,739.2,01.18,0.508
2017-03-10 01:55:00,1780E-3,5C000400,-0724,0839,11941,026.8,045.4,0.223,739.2,01.18,0.508
2017-03-10 01:56:00,1800E-3,5C000400,-0724,0839,12129,026.8,045.4,0.224,739.2,01.18,0.508
2017-03-10 01:57:00,1833E-3,5C000400,-0724,0839,12051,026.8,045.4,0.223,739.3,01.18,0.508
2017-03-10 01:58:00,1842E-3,5C000400,-0724,0839,11928,026.7,045.4,0.223,739.2,01.18,0.508
2017-03-10 01:59:00,1858E-3,5C000400,-0724,0840,12148,026.7,045.4,0.224,739.2,01.18,0.508
2017-03-10 02:00:00,1873E-3,5C000400,-0724,0839,12041,026.7,045.4,0.224,739.2,01.18,0.508
2017-03-10 02:01:00,1738E-3,5C000400,-0724,0840,12056,026.7,045.4,0.223,739.3,01.18,0.508
2017-03-10 02:02:00,1781E-3,5C000400,-0724,0840,11962,026.7,045.4,0.223,739.2,01.18,0.508
2017-03-10 02:03:00,1663E-3,5C000400,-0724,0840,12095,026.7,045.4,0.224,739.3,01.18,0.508
2017-03-10 02:04:00,1825E-3,5C000400,-0724,0840,12064,026.7,045.4,0.224,739.2,01.18,0.508
2017-03-10 02:05:00,1807E-3,5C000400,-0724,0840,11953,026.8,045.4,0.223,739.3,01.18,0.508
2017-03-10 02:06:00,1716E-3,5C000400,-0724,0839,12230,026.8,045.4,0.224,739.3,01.18,0.508
2017-03-10 02:07:00,1793E-3,5C000400,-0724,0839,12171,026.7,045.4,0.224,739.2,01.18,0.508
2017-03-10 02:08:00,1761E-3,5C000400,-0724,0840,11965,026.8,045.4,0.223,739.3,01.18,0.508
2017-03-10 02:09:00,1775E-3,5C000400,-0724,0839,11944,026.8,045.4,0.224,739.3,01.18,0.508
2017-03-10 02:10:00,1897E-3,5C000400,-0724,0840,12078,026.8,045.4,0.224,739.2,01.18,0.508
2017-03-10 02:11:00,1686E-3,5C000400,-0724,0840,12073,026.8,045.4,0.223,739.2,01.18,0.508
2017-03-10 02:12:00,1825E-3,5C000400,-0724,0841,12079,026.8,045.4,0.224,739.2,01.18,0.508
2017-03-10 02:13:00,1857E-3,5C000400,-0724,0839,12088,026.8,045.4,0.223,739.3,01.18,0.508
2017-03-10 02:14:00,1779E-3,5C000400,-0724,0840,12135,026.8,045.4,0.223,739.2,01.18,0.508
2017-03-10 02:15:00,1601E-3,5C000400,-0724,0840,12036,026.9,045.4,0.224,739.3,01.18,0.508
2017-03-10 02:16:00,1849E-3,5C000400,-0724,0839,12018,026.8,045.4,0.223,739.4,01.18,0.508
2017-03-10 02:17:00,1696E-3,5C000400,-0724,0840,12049,026.8,045.4,0.223,739.4,01.18,0.508
2017-03-10 02:18:00,1855E-3,5C000400,-0724,0840,12019,026.8,045.4,0.224,739.3,01.18,0.508
2017-03-10 02:19:00,1875E-3,5C000400,-0724,0840,11994,026.8,045.4,0.223,739.4,01.18,0.508
2017-03-10 02:20:00,1818E-3,5C000400,-0724,0840,11882,026.8,045.4,0.223,739.4,01.18,0.508
2017-03-10 02:21:00,1842E-3,5C000400,-0724,0840,12137,026.8,045.4,0.224,739.4,01.18,0.508
2017-03-10 02:22:00,1759E-3,5C000400,-0724,0840,11975,026.8,045.4,0.223,739.4,01.18,0.508
2017-03-10 02:23:00,1919E-3,5C000400,-0724,0840,11968,026.8,045.4,0.223,739.5,01.18,0.508
2017-03-10 02:24:00,1918E-3,5C000400,-0724,0839,11959,026.8,045.4,0.223,739.4,01.18,0.508
2017-03-10 02:25:00,1713E-3,5C000400,-0724,0840,11861,026.8,045.4,0.224,739.5,01.18,0.508
2017-03-10 02:26:00,1717E-3,5C000400,-0724,0840,12149,026.8,045.4,0.223,739.5,01.18,0.508
2017-03-10 02:27:00,1813E-3,5C000400,-0724,0840,11946,026.8,045.4,0.223,739.4,01.18,0.508
2017-03-10 02:28:00,1777E-3,5C000400,-0724,0840,12087,026.8,045.4,0.224,739.4,01.18,0.508
2017-03-10 02:29:00,1877E-3,5C000400,-0724,0840,11953,026.8,045.4,0.223,739.4,01.18,0.508
2017-03-10 02:30:00,1868E-3,5C000400,-0724,0840,11967,026.9,045.4,0.223,739.4,01.18,0.508
2017-03-10 02:31:00,1813E-3,5C000400,-0724,0839,12162,026.9,045.4,0.223,739.4,01.18,0.508
2017-03-10 02:32:00,1899E-3,5C000400,-0724,0841,12115,026.9,045.4,0.223,739.4,01.18,0.508
2017-03-10 02:33:00,1820E-3,5C000400,-0724,0840,12082,026.9,045.4,0.223,739.4,01.18,0.508
2017-03-10 02:34:00,1773E-3,5C000400,-0724,0840,12093,026.9,045.4,0.223,739.3,01.18,0.508
2017-03-10 02:35:00,1819E-3,5C000400,-0724,0841,12060,026.9,045.4,0.224,739.3,01.18,0.508
2017-03-10 02:36:00,1827E-3,5C000400,-0724,0840,12045,026.9,045.4,0.223,739.4,01.18,0.508
2017-03-10 02:37:00,1860E-3,5C000400,-0724,0839,12133,026.9,045.4,0.224,739.4,01.18,0.508
2017-03-10 02:38:00,1906E-3,5C000400,-0724,0840,12012,026.9,045.4,0.223,739.4,01.18,0.508
2017-03-10 02:39:00,1721E-3,5C000400,-0724,0840,12004,026.9,045.4,0.223,739.5,01.18,0.508
2017-03-10 02:40:00,1824E-3,5C000400,-0724,0840,11899,026.9,045.4,0.223,739.6,01.18,0.508
2017-03-10 02:41:00,1830E-3,5C000400,-0724,0839,12017,026.9,045.4,0.223,739.6,01.18,0.508
2017-03-10 02:42:00,1771E-3,5C000400,-0724,0840,12053,026.9,045.4,0.223,739.5,01.18,0.508
2017-03-10 02:43:00,1791E-3,5C000400,-0724,0839,11986,026.8,045.4,0.223,739.5,01.18,0.508
2017-03-10 02:44:00,1684E-3,5C000400,-0724,0840,12115,026.9,045.4,0.223,739.5,01.18,0.508
2017-03-10 02:45:00,1675E-3,5C000400,-0724,0840,12064,026.9,045.4,0.223,739.5,01.18,0.508
2017-03-10 02:46:00,1762E-3,5C000400,-0724,0840,12059,026.9,045.4,0.223,739.5,01.18,0.508
2017-03-10 02:47:00,1810E-3,5C000400,-0724,0839,12042,026.9,045.4,0.223,739.5,01.18,0.508
2017-03-10 02:48:00,1896E-3,5C000400,-0724,0840,12104,026.9,045.4,0.223,739.4,01.18,0.508
2017-03-10 02:49:00,1879E-3,5C000400,-0724,0840,12020,026.9,045.4,0.223,739.4,01.18,0.508
2017-03-10 02:50:00,1671E-3,5C000400,-0724,0839,12127,027.0,045.4,0.223,739.5,01.18,0.508
2017-03-10 02:51:00,1777E-3,5C000400,-0724,0839,11963,027.0,045.4,0.223,739.5,01.18,0.508
2017-03-10 02:52:00,1732E-3,5C000400,-0724,0840,12026,027.0,045.4,0.223,739.5,01.18,0.508
2017-03-10 02:53:00,1829E-3,5C000400,-0724,0840,11916,026.9,045.4,0.223,739.5,01.18,0.508
2017-03-10 02:54:00,1833E-3,5C000400,-0724,0840,11971,026.9,045.4,0.223,739.5,01.18,0.508
2017-03-10 02:55:00,1758E-3,5C000400,-0724,0840,12013,026.9,045.4,0.223,739.5,01.18,0.508
2017-03-10 02:56:00,1755E-3,5C000400,-0724,0840,11994,026.9,045.4,0.223,739.5,01.18,0.508
2017-03-10 02:57:00,1841E-3,5C000400,-0724,0839,11899,026.9,045.4,0.223,739.5,01.18,0.508
2017-03-10 02:58:00,1804E-3,5C000400,-0724,0839,12036,026.8,045.4,0.223,739.5,01.18,0.508
2017-03-10 02:59:00,1839E-3,5C000400,-0724,0840,11966,026.8,045.4,0.223,739.5,01.18,0.508
2017-03-10 03:00:00,1818E-3,5C000400,-0724,0840,12014,026.9,045.4,0.223,739.5,01.18,0.508
2017-03-10 03:01:00,1811E-3,5C000400,-0724,0840,12063,026.9,045.4,0.223,739.5,01.18,0.508
2017-03-10 03:02:00,1900E-3,5C000400,-0724,0839,12016,026.9,045.4,0.223,739.5,01.18,0.508
2017-03-10 03:03:00,1807E-3,5C000400,-0724,0840,12060,026.9,045.4,0.223,739.5,01.18,0.508
2017-03-10 03:04:00,1780E-3,5C000400,-0724,0841,12044,026.9,045.4,0.223,739.5,01.18,0.508
2017-03-10 03:05:00,1845E-3,5C000400,-0724,0840,12081,026.9,045.4,0.223,739.5,01.18,0.508
2017-03-10 03:06:00,1843E-3,5C000400,-0724,0840,12158,026.9,045.4,0.223,739.5,01.18,0.508
2017-03-10 03:07:00,1794E-3,5C000400,-0724,0839,12143,026.9,045.4,0.224,739.6,01.18,0.508
2017-03-10 03:08:00,1912E-3,5C000400,-0724,0840,12102,026.9,045.4,0.223,739.6,01.18,0.508
2017-03-10 03:09:00,1800E-3,5C000400,-0724,0840,11980,026.9,045.4,0.223,739.6,01.18,0.508
2017-03-10 03:10:00,1793E-3,5C000400,-0724,0840,12007,026.9,045.4,0.224,739.6,01.18,0.508
2017-03-10 03:11:00,1711E-3,5C000400,-0724,0840,12018,026.9,045.4,0.223,739.7,01.18,0.508
2017-03-10 03:12:00,1824E-3,5C000400,-0724,0840,11935,026.9,045.4,0.223,739.7,01.18,0.508
2017-03-10 03:13:00,1819E-3,5C000400,-0724,0840,11957,026.9,045.4,0.223,739.7,01.18,0.508
2017-03-10 03:14:00,1580E-3,5C000400,-0724,0840,11870,026.9,045.4,0.223,739.7,01.18,0.508
2017-03-10 03:15:00,1740E-3,5C000400,-0724,0840,12195,026.9,045.4,0.223,739.8,01.18,0.508
2017-03-10 03:16:00,1793E-3,5C000400,-0724,0839,12140,026.9,045.4,0.223,739.7,01.18,0.508
2017-03-10 03:17:00,1854E-3,5C000400,-0724,0840,11985,026.8,045.4,0.223,739.8,01.18,0.508
2017-03-10 03:18:00,1755E-3,5C000400,-0724,0840,12113,026.8,045.4,0.223,739.8,01.18,0.508
2017-03-10 03:19:00,1709E-3,5C000400,-0724,0840,12106,026.8,045.4,0.223,739.8,01.18,0.508
2017-03-10 03:20:00,1892E-3,5C000400,-0724,0840,12084,026.9,045.4,0.223,739.8,01.18,0.508
2017-03-10 03:21:00,1732E-3,5C000400,-0724,0839,12101,026.9,045.4,0.223,739.8,01.18,0.508
2017-03-10 03:22:00,1730E-3,5C000400,-0724,0839,11986,026.9,045.4,0.223,739.8,01.18,0.508
2017-03-10 03:23:00,1823E-3,5C000400,-0724,0839,12072,026.9,045.4,0.223,739.8,01.18,0.508
2017-03-10 03:24:00,1926E-3,5C000400,-0724,0840,11961,026.9,045.4,0.223,739.8,01.18,0.508
2017-03-10 03:25:00,1662E-3,5C000400,-0724,0840,12094,026.9,045.4,0.223,739.8,01.18,0.508
2017-03-10 03:26:00,1821E-3,5C000400,-0724,0840,12024,026.9,045.4,0.223,739.8,01.18,0.508
2017-03-10 03:27:00,1703E-3,5C000400,-0724,0840,12080,026.9,045.4,0.223,739.8,01.18,0.508
2017-03-10 03:28:00,1737E-3,5C000400,-0724,0839,12159,026.9,045.4,0.223,739.7,01.18,0.508
2017-03-10 03:29:00,1867E-3,5C000400,-0724,0840,12162,026.9,045.4,0.223,739.8,01.18,0.508
2017-03-10 03:30:00,1713E-3,5C000400,-0724,0840,12061,026.9,045.4,0.223,739.8,01.18,0.508
2017-03-10 03:31:00,1865E-3,5C000400,-0724,0839,11893,026.9,045.4,0.223,739.7,01.18,0.508
2017-03-10 03:32:00,1812E-3,5C000400,-0724,0840,12111,026.9,045.4,0.223,739.7,01.18,0.508
2017-03-10 03:33:00,1836E-3,5C000400,-0724,0840,11858,026.9,045.4,0.223,739.7,01.18,0.508
2017-03-10 03:34:00,1752E-3,5C000400,-0724,0840,12077,026.9,045.4,0.223,739.7,01.18,0.508
2017-03-10 03:35:00,1667E-3,5C000400,-0724,0840,12071,026.9,045.4,0.223,739.7,01.18,0.508
2017-03-10 03:36:00,1855E-3,5C000400,-0724,0840,11948,026.9,045.4,0.224,739.6,01.18,0.508
2017-03-10 03:37:00,1773E-3,5C000400,-0724,0840,12040,026.9,045.4,0.224,739.7,01.18,0.508
2017-03-10 03:38:00,1736E-3,5C000400,-0724,0839,12029,026.9,045.4,0.223,739.6,01.18,0.508
2017-03-10 03:39:00,1862E-3,5C000400,-0724,0840,12054,026.9,045.4,0.223,739.7,01.18,0.508
2017-03-10 03:40:00,1793E-3,5C000400,-0724,0840,12117,026.9,045.4,0.223,739.7,01.18,0.508
2017-03-10 03:41:00,1681E-3,5C000400,-0724,0840,11980,026.9,045.4,0.223,739.7,01.18,0.508
2017-03-10 03:42:00,1716E-3,5C000400,-0724,0840,12081,026.9,045.4,0.223,739.7,01.18,0.508
2017-03-10 03:43:00,1857E-3,5C000400,-0724,0839,12134,026.9,045.4,0.223,739.7,01.18,0.508
2017-03-10 03:44:00,1842E-3,5C000400,-0724,0839,11896,026.9,045.4,0.223,739.7,01.18,0.508
2017-03-10 03:45:00,1803E-3,5C000400,-0724,0839,11988,026.9,045.4,0.223,739.8,01.18,0.508
2017-03-10 03:46:00,1866E-3,5C000400,-0724,0840,11961,026.9,045.4,0.223,739.8,01.18,0.508
2017-03-10 03:47:00,1867E-3,5C000400,-0724,0840,12176,026.9,045.4,0.223,739.7,01.18,0.508
2017-03-10 03:48:00,1754E-3,5C000400,-0724,0839,12139,026.9,045.4,0.223,739.7,01.18,0.508
2017-03-10 03:49:00,1813E-3,5C000400,-0724,0839,12036,026.9,045.4,0.223,739.6,01.18,0.508
2017-03-10 03:50:00,1914E-3,5C000400,-0724,0839,12124,026.9,045.4,0.223,739.6,01.18,0.508
2017-03-10 03:51:00,1947E-3,5C000400,-0724,0840,12016,026.9,045.4,0.223,739.6,01.18,0.508
2017-03-10 03:52:00,1684E-3,5C000400,-0724,0839,11975,026.9,045.4,0.223,739.5,01.18,0.508
2017-03-10 03:53:00,1720E-3,5C000400,-0724,0840,12133,026.9,045.4,0.223,739.5,01.18,0.508
2017-03-10 03:54:00,1793E-3,5C000400,-0724,0839,12019,026.9,045.4,0.223,739.5,01.18,0.508
2017-03-10 03:55:00,1755E-3,5C000400,-0724,0839,12045,026.9,045.4,0.223,739.5,01.18,0.508
2017-03-10 03:56:00,1661E-3,5C000400,-0724,0839,12104,027.0,045.4,0.223,739.4,01.18,0.508
2017-03-10 03:57:00,1720E-3,5C000400,-0724,0840,12016,026.9,045.4,0.223,739.5,01.18,0.508
2017-03-10 03:58:00,1883E-3,5C000400,-0724,0839,12131,026.9,045.4,0.223,739.6,01.18,0.508
2017-03-10 03:59:00,1761E-3,5C000400,-0724,0840,12097,026.9,045.4,0.223,739.5,01.18,0.508
2017-03-10 04:00:00,1797E-3,5C000400,-0724,0840,11955,026.9,045.4,0.223,739.5,01.18,0.508
2017-03-10 04:01:00,1788E-3,5C000400,-0724,0839,12097,026.9,045.4,0.223,739.6,01.18,0.508
2017-03-10 04:02:00,1787E-3,5C000400,-0724,0841,12043,026.9,045.4,0.223,739.5,01.18,0.508
2017-03-10 04:03:00,1755E-3,5C000400,-0724,0839,12114,026.9,045.4,0.224,739.5,01.18,0.508
2017-03-10 04:04:00,1776E-3,5C000400,-0724,0840,12079,027.0,045.4,0.223,739.5,01.18,0.508
2017-03-10 04:05:00,1781E-3,5C000400,-0724,0839,11964,026.9,045.4,0.223,739.5,01.18,0.508
2017-03-10 04:06:00,1731E-3,5C000400,-0724,0839,12037,027.0,045.4,0.223,739.5,01.18,0.508
2017-03-10 04:07:00,1818E-3,5C000400,-0724,0839,12040,026.9,045.4,0.223,739.5,01.18,0.508
2017-03-10 04:08:00,1773E-3,5C000400,-0724,0839,12007,027.0,045.4,0.223,739.4,01.18,0.508
2017-03-10 04:09:00,1737E-3,5C000400,-0724,0839,12021,026.9,045.4,0.223,739.5,01.18,0.508
2017-03-10 04:10:00,1741E-3,5C000400,-0724,0839,11945,026.9,045.4,0.223,739.4,01.18,0.508
2017-03-10 04:11:00,1812E-3,5C000400,-0724,0840,12090,026.9,045.4,0.223,739.5,01.18,0.508
2017-03-10 04:12:00,1863E-3,5C000400,-0724,0840,11957,026.9,045.4,0.223,739.5,01.18,0.508
2017-03-10 04:13:00,1798E-3,5C000400,-0724,0839,11936,026.9,045.4,0.223,739.4,01.18,0.508
2017-03-10 04:14:00,1783E-3,5C000400,-0724,0841,12097,026.9,045.4,0.223,739.5,01.18,0.508
2017-03-10 04:15:00,1735E-3,5C000400,-0724,0840,12095,026.9,045.4,0.223,739.5,01.18,0.508
2017-03-10 04:16:00,1719E-3,5C000400,-0724,0840,12006,027.0,045.4,0.223,739.5,01.18,0.508
2017-03-10 04:17:00,1713E-3,5C000400,-0724,0839,11919,027.0,045.4,0.223,739.5,01.18,0.508
2017-03-10 04:18:00,1648E-3,5C000400,-0724,0839,12065,027.0,045.4,0.223,739.5,01.18,0.508
2017-03-10 04:19:00,1824E-3,5C000400,-0724,0840,12052,026.9,045.5,0.223,739.4,01.18,0.508
2017-03-10 04:20:00,1879E-3,5C000400,-0724,0840,12055,027.0,045.4,0.223,739.5,01.18,0.508